Weather History for KO54 - January, 2013

Change the Weather History Date:

Tuesday, January 8, 2013

  Actual Average (KRDD) Record (KRDD)
Temperature  
Mean Temperature 36 °F -  
Max Temperature 39 °F 54 °F 73 °F (2007)
Min Temperature 32 °F 36 °F 25 °F (1987)
Degree Days  
Heating Degree Days 30    
Cooling Degree Days 0    
Moisture  
Dew Point 35 °F    
Average Humidity 95    
Maximum Humidity 100    
Minimum Humidity 87    
Precipitation  
Precipitation 0.00 in 0.20 in 3.28 in (1995)
Month to date precipitation 1.56  
Year to date precipitation 1.56  
Since 1 July precipitation 15.32  
Sea Level Pressure  
Sea Level Pressure 30.25 in    
Wind  
Wind Speed 0 mph (NNE)    
Max Wind Speed 6 mph    
Max Gust Speed -    
Visibility 4 miles    
Events      
T = Trace of Precipitation, MM = Missing Value Source: NWS Daily Summary

Daily Weather History Graph

Daily Weather History Graph

Search for Another Location

Airport or City:

Trip Planner

Search our weather history database for the weather conditions in past years. The results will help you decide how hot, cold, wet, or windy it might be!

Date:

Astronomy

Jan. 08, 2013 Rise Set
Actual Time 7:35 AM PST 5:01 PM PST
Civil Twilight 7:05 AM PST 5:32 PM PST
Nautical Twilight 6:31 AM PST 6:06 PM PST
Astronomical Twilight 5:57 AM PST 6:39 PM PST
Moon 4:14 AM PST (1/8) 2:09 PM PST (1/8)
Length of Visible Light 10h 27m
Length of Day
9h 26m
Waning Crescent, 13% of the Moon is Illuminated
Jan 8
Waning Crescent
Jan 11
New
Jan 18
First Quarter
Jan 26
Full
Feb 3
Last Quarter

Hourly Weather History & Observations

Time (PST) Temp. Windchill Dew Point Humidity Pressure Visibility Wind Dir Wind Speed Gust Speed Precip Events Conditions
12:15 AM 35.6 °F - 35.6 °F 100% 30.28 in 1.0 mi Calm Calm - N/A   Unknown
12:35 AM 35.6 °F - 35.6 °F 100% 30.29 in 0.8 mi Calm Calm - N/A   Unknown
12:55 AM 35.6 °F - 35.6 °F 100% 30.29 in 1.0 mi Calm Calm - N/A   Unknown
1:15 AM 35.6 °F - 35.6 °F 100% 30.29 in 1.5 mi Calm Calm - N/A   Unknown
1:35 AM 35.6 °F - 35.6 °F 100% 30.29 in 0.8 mi Calm Calm - N/A   Unknown
1:55 AM 35.6 °F - 35.6 °F 100% 30.30 in 1.0 mi Calm Calm - N/A   Unknown
2:15 AM 35.6 °F - 35.6 °F 100% 30.30 in 1.0 mi Calm Calm - N/A   Unknown
2:35 AM 35.6 °F - 35.6 °F 100% 30.29 in 1.0 mi Calm Calm - N/A   Unknown
2:55 AM 35.6 °F - 35.6 °F 100% 30.29 in 0.5 mi Calm Calm - N/A   Unknown
3:15 AM 35.6 °F - 35.6 °F 100% 30.29 in 0.2 mi Calm Calm - N/A   Unknown
3:35 AM 35.6 °F - 35.6 °F 100% 30.28 in 0.5 mi Calm Calm - N/A   Unknown
3:55 AM 35.6 °F - 35.6 °F 100% 30.28 in 1.0 mi Calm Calm - N/A   Unknown
4:15 AM 35.6 °F - 35.6 °F 100% 30.27 in 1.0 mi Calm Calm - N/A   Unknown
4:35 AM 35.6 °F - 35.6 °F 100% 30.27 in 1.2 mi Calm Calm - N/A   Unknown
5:15 AM 35.6 °F - 35.6 °F 100% 30.27 in 1.0 mi Calm Calm - N/A   Unknown
5:35 AM 35.6 °F - 35.6 °F 100% 30.27 in 1.8 mi Calm Calm - N/A   Unknown
5:55 AM 35.6 °F - 35.6 °F 100% 30.27 in 1.8 mi Calm Calm - N/A   Unknown
6:35 AM 35.6 °F - 35.6 °F 100% 30.28 in 2.0 mi Calm Calm - N/A   Unknown
7:15 AM 35.6 °F - 33.8 °F 93% 30.29 in 2.5 mi Calm Calm - N/A   Unknown
7:35 AM 35.6 °F - 33.8 °F 93% 30.29 in 3.0 mi Calm Calm - N/A   Unknown
7:55 AM 35.6 °F - 33.8 °F 93% 30.29 in 0.5 mi Calm Calm - N/A   Unknown
8:15 AM 35.6 °F - 35.6 °F 100% 30.30 in 0.5 mi Calm Calm - N/A   Unknown
8:35 AM 35.6 °F - 35.6 °F 100% 30.31 in 1.2 mi Calm Calm - N/A   Unknown
8:55 AM 35.6 °F - 35.6 °F 100% 30.32 in 3.0 mi Calm Calm - N/A   Unknown
9:35 AM 37.4 °F 34.9 °F 35.6 °F 93% 30.33 in 10.0 mi NE 3.5 mph - N/A   Unknown
9:55 AM 37.4 °F - 33.8 °F 87% 30.33 in 10.0 mi Calm Calm - N/A   Unknown
10:15 AM 37.4 °F 34.9 °F 33.8 °F 87% 30.33 in 10.0 mi NW 3.5 mph - N/A   Unknown
10:35 AM 37.4 °F - 33.8 °F 87% 30.32 in 10.0 mi Calm Calm - N/A   Unknown
10:55 AM 37.4 °F - 33.8 °F 87% 30.31 in 10.0 mi Calm Calm - N/A   Unknown
11:15 AM 37.4 °F 34.9 °F 35.6 °F 93% 30.30 in 10.0 mi South 3.5 mph - N/A   Unknown
11:35 AM 37.4 °F - 35.6 °F 93% 30.29 in 10.0 mi Calm Calm - N/A   Unknown
11:55 AM 37.4 °F - 35.6 °F 93% 30.28 in 10.0 mi Calm Calm - N/A   Unknown
12:15 PM 37.4 °F - 35.6 °F 93% 30.27 in 10.0 mi Calm Calm - N/A   Unknown
12:35 PM 37.4 °F - 35.6 °F 93% 30.26 in 10.0 mi Calm Calm - N/A   Unknown
12:55 PM 37.4 °F - 35.6 °F 93% 30.26 in 10.0 mi Calm Calm - N/A   Unknown
1:15 PM 37.4 °F - 35.6 °F 93% 30.25 in 10.0 mi Calm Calm - N/A   Unknown
1:35 PM 37.4 °F - 35.6 °F 93% 30.24 in 10.0 mi Calm Calm - N/A   Unknown
1:55 PM 39.2 °F - 35.6 °F 87% 30.24 in 10.0 mi Calm Calm - N/A   Unknown
2:15 PM 39.2 °F - 35.6 °F 87% 30.23 in 10.0 mi Calm Calm - N/A   Unknown
2:35 PM 39.2 °F - 35.6 °F 87% 30.23 in 10.0 mi Calm Calm - N/A   Unknown
2:55 PM 39.2 °F - 35.6 °F 87% 30.23 in 10.0 mi Calm Calm - N/A   Unknown
3:15 PM 39.2 °F - 35.6 °F 87% 30.23 in 10.0 mi Calm Calm - N/A   Unknown
3:35 PM 39.2 °F - 35.6 °F 87% 30.22 in 10.0 mi Calm Calm - N/A   Unknown
3:55 PM 37.4 °F - 35.6 °F 93% 30.22 in 10.0 mi Calm Calm - N/A   Unknown
4:15 PM 37.4 °F - 37.4 °F 100% 30.22 in 10.0 mi Calm Calm - N/A   Unknown
4:35 PM 37.4 °F - 37.4 °F 100% 30.21 in 1.2 mi Calm Calm - N/A   Unknown
4:55 PM 37.4 °F - 37.4 °F 100% 30.21 in 1.2 mi Calm Calm - N/A   Unknown
5:15 PM 37.4 °F - 37.4 °F 100% 30.21 in 3.0 mi Calm Calm - N/A   Unknown
5:35 PM 37.4 °F - 37.4 °F 100% 30.21 in 1.2 mi Calm Calm - N/A   Unknown
5:55 PM 37.4 °F - 35.6 °F 93% 30.21 in 1.5 mi Calm Calm - N/A   Unknown
6:15 PM 37.4 °F - 35.6 °F 93% 30.21 in 0.2 mi Calm Calm - N/A   Unknown
6:35 PM 35.6 °F 32.8 °F 35.6 °F 100% 30.21 in 1.0 mi NNE 3.5 mph - N/A   Unknown
6:55 PM 35.6 °F - 35.6 °F 100% 30.21 in 1.0 mi Calm Calm - N/A   Unknown
7:15 PM 35.6 °F 32.8 °F 33.8 °F 93% 30.21 in 1.2 mi North 3.5 mph - N/A   Unknown
7:35 PM 35.6 °F - 33.8 °F 93% 30.21 in 2.0 mi Calm Calm - N/A   Unknown
7:55 PM 35.6 °F - 33.8 °F 93% 30.21 in 0.5 mi Calm Calm - N/A   Unknown
8:15 PM 35.6 °F - 33.8 °F 93% 30.21 in 0.5 mi Calm Calm - N/A   Unknown
8:35 PM 33.8 °F 30.8 °F 33.8 °F 100% 30.21 in 0.5 mi NNE 3.5 mph - N/A   Unknown
8:55 PM 33.8 °F 30.8 °F 32.0 °F 93% 30.21 in 0.2 mi NNE 3.5 mph - N/A   Unknown
9:15 PM 33.8 °F 30.8 °F 32.0 °F 93% 30.20 in 0.5 mi NNE 3.5 mph - N/A   Unknown
9:35 PM 33.8 °F - 32.0 °F 93% 30.20 in 2.0 mi Calm Calm - N/A   Unknown
9:55 PM 33.8 °F - 32.0 °F 93% 30.20 in 0.5 mi Calm Calm - N/A   Unknown
10:15 PM 33.8 °F 30.8 °F 32.0 °F 93% 30.20 in 0.8 mi North 3.5 mph - N/A   Unknown
10:35 PM 33.8 °F - 32.0 °F 93% 30.20 in 1.0 mi Calm Calm - N/A   Unknown
10:55 PM 33.8 °F - 32.0 °F 93% 30.20 in 1.2 mi Calm Calm - N/A   Unknown
11:15 PM 32.0 °F - 32.0 °F 100% 30.19 in 1.2 mi Calm Calm - N/A   Unknown
11:35 PM 33.8 °F 28.6 °F 32.0 °F 93% 30.19 in 2.5 mi North 5.8 mph - N/A   Unknown
11:55 PM 33.8 °F - 32.0 °F 93% 30.16 in 3.0 mi Calm Calm - N/A   Unknown